Regional Weather Roundup
Issued by NWS Newport/Morehead, NC

Current Version | Previous Version | Graphics & Text | Print | Product List | Glossary Off
Versions: 1 2 3 4 5 6 7 8 9 10 11 12 13 14 15 16 17 18 19 20 21 22 23 24 25 26 27 28 29 30 31 32 33 34 35 36 37 38 39 40 41 42 43 44 45 46 47 48 49 50

000
ASUS42 KMHX 280813
RWRMHX
WEATHER ROUNDUP FOR EASTERN NORTH CAROLINA
NATIONAL WEATHER SERVICE NEWPORT/MOREHEAD CITY NC
400 AM EDT SUN MAY 28 2017

NOTE: "FAIR" INDICATES FEW OR NO CLOUDS BELOW 12,000 FEET
WITH NO SIGNIFICANT WEATHER AND/OR OBSTRUCTIONS TO VISIBILITY

NCZ015>017-031-032-045>047-102-103-280900-
NORTH COAST

CITY           SKY/WX    TMP DP  RH WIND       PRES   REMARKS
EDENTON        MOCLDY    73  68  83 S9        29.82F
ELIZABETH CITY PTCLDY    68  67  96 NE5       29.83F
KITTY HAWK     MOSUNNY   67  66  99 CALM      29.82S
MANTEO         MOCLDY    69  65  85 NE3       29.84R

$$

NCZ045>047-081-094-103-104-280900-
CENTRAL COAST

CITY           SKY/WX    TMP DP  RH WIND       PRES   REMARKS
FRISCO         CLEAR     75  70  84 SW8       29.84F

$$

NCZ095-097-098-100-101-280900-
SOUTHERN COAST

CITY           SKY/WX    TMP DP  RH WIND       PRES   REMARKS
BEAUFORT       CLEAR     75  74  96 SW7       29.85F
CEDAR ISLAND   NOT AVBL
JACKSONVILLE   PTCLDY    72  70  93 SW8       29.84F
PINEY ISLAND   MOSUNNY  N/A N/A N/A S3        29.85S
WILMINGTON     PTCLDY    72  70  93 S3        29.86F


$$

NCZ011>013-027>030-043-044-078>080-089-090>093-098-280900-
COASTAL PLAIN

CITY           SKY/WX    TMP DP  RH WIND       PRES   REMARKS
AHOSKIE        NOT AVBL
CLINTON        MOCLDY    70  68  93 CALM      29.85F
ELIZABETHTOWN  CLEAR     72  67  87 CALM      29.86S
GOLDSBORO      PTCLDY    72  72 100 S5        29.82S
GREENVILLE     CLOUDY    72  72 100 SW5       29.85S
HAVELOCK       CLEAR     70  67  90 CALM      29.86F
KENANSVILLE    CLEAR     70  68  94 SW3       29.85F
KINSTON        PTCLDY    71  69  91 CALM      29.84R
NEW BERN       CLEAR     70  69  97 CALM      29.86S
RICHLANDS      CLEAR     69  68  96 S5        29.86F
ROCKY MOUNT    CLOUDY    69  68  96 CALM      29.82S
WASHINGTON     CLOUDY    72  69  91 S5        29.82F
WHITEVILLE     PTCLDY    71  66  86 CALM      29.87S

$$

AMZ130-135-150-152-154-156-158-170-250-252-270-ANZ085-086-088-633-658-670-280900-
MARINE OBSERVATIONS

STATION/POSITION TIME  TEMP    WIND        PRES    WAVE   SWELL
                       AIR SEA DIR/SP/G            HT/PER HT/PER
                 (UTC) (F)     (DEG/KT/KT) (MB)    (FT/S) (FT/S)
CHESAPEAKE LIGHT NOT AVBL
64 E VA BEACH    0750   66 64  320/  6/  8 1010.5    3/ 6   3/ 6
DUCK             0748   68 66   80/  5/  5 1009.7
2 E DUCK         0800      67                N/A     1/ 8
OREGON INLET     0742   74 70  200/  7/  8 1009.8
13E OREGON INLT  0748      66                N/A     3/ 8   2/ 8
HATTERAS CG      0748   74 74  180/  3/  7 1010.3
DIAMOND BUOY     0750   76 76  220/  8/  8 1010.7    4/ 6   3/ 6
CAPE LOOKOUT     0800   74     240/  8/ 12 1010.3
BEAUFORT LAB     0748   74 73  240/  5/  8 1010.0
30 SE NEW RVR IN 0708   76     250/ 12/ 19 1011.6
30 SE NEW RVR IN 0743      76                N/A     4/ 5
27 SE WRIGHTSVLE 0708   75 77  230/ 12/ 19 1010.8
5 SE WRIGHTSVLE  0708   75 75  230/  8/ 10 1011.5
225 S CAPE HAT   0750   76 77  230/ 14/ 16 1014.2    3/ 7   2/ 7
41 SE CHARLESTON 0750   76 75  220/ 14/ 16 1012.5    3/ 5   2/ 7

$$



USA.gov is the U.S. government's official web portal to all federal, state and local government web resources and services.